This demonstration page uses our WeatherBlox Daily Observations layout. Learn more.

Hourly Observations for October 10, 2019

Temp ( °F °C ) Dew Point ( °F °C ) Humidity (%) Winds ( mph kmh ) Pressure ( in mb ) Visibility ( mi km ) Precip ( " mm )
12:15 am 00:15 Cloudy 54 12 50 10 88 88 NNE 8 13 30.3 1026 10 16.09344 0 0
12:35 am 00:35 Cloudy 54 12 48 9 82 82 NNE 8 13 30.3 1026 10 16.09344 0 0
12:55 am 00:55 Cloudy 54 12 48 9 82 82 NNE 5 7 30.3 1026 10 16.09344 0 0
1:15 am 01:15 Mostly Cloudy 54 12 48 9 82 82 NE 5 7 30.3 1026 10 16.09344 0 0
1:35 am 01:35 Mostly Cloudy 54 12 48 9 82 82 NNE 6 9 30.3 1026 10 16.09344 0 0
1:55 am 01:55 Cloudy 54 12 48 9 82 82 N 6 9 30.3 1026 10 16.09344 0 0
2:15 am 02:15 Cloudy 54 12 48 9 82 82 NNE 7 11 30.3 1026 10 16.09344 0 0
2:35 am 02:35 Cloudy 54 12 46 8 77 77 NNE 7 11 30.3 1026 10 16.09344 0 0
3:15 am 03:15 Cloudy 54 12 46 8 77 77 N 7 11 30.3 1026 10 16.09344 0 0
3:35 am 03:35 Cloudy 54 12 46 8 77 77 NNE 6 9 30.3 1026 10 16.09344 0 0
3:55 am 03:55 Cloudy 52 11 46 8 82 82 NNE 6 9 30.3 1026 10 16.09344 0 0
4:15 am 04:15 Cloudy 52 11 46 8 82 82 NNE 6 9 30.3 1026 10 16.09344 0 0
4:35 am 04:35 Cloudy 52 11 46 8 82 82 NNE 5 7 30.3 1026 10 16.09344 0 0
4:55 am 04:55 Cloudy 52 11 46 8 82 82 N 6 9 30.3 1026 10 16.09344 0 0
5:15 am 05:15 Mostly Cloudy 52 11 46 8 82 82 N 6 9 30.3 1026 10 16.09344 0 0
5:35 am 05:35 Mostly Cloudy 52 11 46 8 82 82 NNE 6 9 30.3 1026 10 16.09344 0 0
5:55 am 05:55 Cloudy 52 11 45 7 77 77 N 6 9 30.3 1026 10 16.09344 0 0
6:15 am 06:15 Partly Cloudy 52 11 45 7 77 77 NNE 7 11 30.3 1026 10 16.09344 0 0
6:35 am 06:35 Clear 50 10 45 7 82 82 N 5 7 30.33 1027 10 16.09344 0 0
6:55 am 06:55 Clear 50 10 45 7 82 82 N 6 9 30.33 1027 10 16.09344 0 0
7:15 am 07:15 Sunny 50 10 45 7 82 82 N 5 7 30.33 1027 10 16.09344 0 0
7:35 am 07:35 Sunny 48 9 45 7 87 87 N 5 7 30.33 1027 10 16.09344 0 0
7:55 am 07:55 Sunny 50 10 45 7 82 82 N 3 6 30.33 1027 10 16.09344 0 0
8:15 am 08:15 Partly Cloudy 50 10 46 8 88 88 N 5 7 30.33 1027 10 16.09344 0 0
8:35 am 08:35 Mostly Cloudy 52 11 46 8 82 82 N 6 9 30.33 1027 10 16.09344 0 0
8:55 am 08:55 Cloudy 54 12 46 8 77 77 NNE 7 11 30.33 1027 10 16.09344 0 0
9:15 am 09:15 Partly Cloudy 55 13 45 7 67 67 N 8 13 30.3 1026 10 16.09344 0 0
9:35 am 09:35 Partly Cloudy 55 13 46 8 72 72 NNE 7 11 30.3 1026 10 16.09344 0 0
9:55 am 09:55 Sunny 55 13 46 8 72 72 NNE 6 9 30.3 1026 10 16.09344 0 0
10:15 am 10:15 Sunny 59 15 46 8 63 63 NNE 10 17 30.3 1026 10 16.09344 0 0
10:35 am 10:35 Sunny 59 15 46 8 63 63 N 6 9 30.3 1026 10 16.09344 0 0
10:55 am 10:55 Sunny 59 15 48 9 68 68 NNW 3 6 30.3 1026 10 16.09344 0 0
11:15 am 11:15 Sunny 61 16 48 9 63 63 NE 6 9 30.3 1026 10 16.09344 0 0
11:35 am 11:35 Sunny 61 16 50 10 68 68 N 6 9 30.27 1025 10 16.09344 0 0
11:55 am 11:55 Sunny 63 17 50 10 64 64 NNW 9 15 30.27 1025 10 16.09344 0 0
12:15 pm 12:15 Sunny 64 18 50 10 60 60 N 7 11 30.27 1025 10 16.09344 0 0
12:35 pm 12:35 Sunny 64 18 50 10 60 60 N 9 15 30.27 1025 10 16.09344 0 0
12:55 pm 12:55 Sunny 64 18 52 11 64 64 NW 7 11 30.24 1024 10 16.09344 0 0
1:15 pm 13:15 Sunny 68 20 52 11 56 56 N 6 9 30.24 1024 10 16.09344 0 0
1:55 pm 13:55 Sunny 70 21 52 11 53 53 NNE 6 9 30.24 1024 10 16.09344 0 0
2:15 pm 14:15 Sunny 70 21 54 12 57 57 NW 5 7 30.21 1023 10 16.09344 0 0
2:35 pm 14:35 Sunny 72 22 54 12 53 53 N 5 7 30.21 1023 10 16.09344 0 0
2:55 pm 14:55 Sunny 72 22 54 12 53 53 N 3 6 30.21 1023 10 16.09344 0 0
3:15 pm 15:15 Sunny 72 22 54 12 53 53 Calm 30.21 1023 10 16.09344 0 0
3:35 pm 15:35 Sunny 72 22 54 12 53 53 NNE 5 7 30.21 1023 10 16.09344 0 0
3:55 pm 15:55 Sunny 72 22 54 12 53 53 Calm 30.18 1022 10 16.09344 0 0
4:15 pm 16:15 Sunny 72 22 54 12 53 53 NNE 3 6 30.18 1022 10 16.09344 0 0
4:35 pm 16:35 Sunny 72 22 54 12 53 53 NNW 7 11 30.18 1022 10 16.09344 0 0
4:55 pm 16:55 Sunny 72 22 54 12 53 53 N 6 9 30.18 1022 10 16.09344 0 0
5:15 pm 17:15 Sunny 72 22 54 12 53 53 N 6 9 30.18 1022 10 16.09344 0 0
5:35 pm 17:35 Sunny 72 22 54 12 53 53 NE 5 7 30.18 1022 10 16.09344 0 0
5:55 pm 17:55 Sunny 72 22 54 12 53 53 N 6 9 30.18 1022 10 16.09344 0 0
6:15 pm 18:15 Sunny 70 21 54 12 57 57 NNW 6 9 30.18 1022 10 16.09344 0 0
6:35 pm 18:35 Sunny 68 20 54 12 60 60 NNW 3 6 30.18 1022 10 16.09344 0 0
6:55 pm 18:55 Clear 68 20 54 12 60 60 NNW 3 6 30.18 1022 10 16.09344 0 0
7:15 pm 19:15 Clear 64 18 54 12 68 68 Calm 30.18 1022 10 16.09344 0 0
7:35 pm 19:35 Clear 64 18 54 12 68 68 N 3 6 30.18 1022 10 16.09344 0 0
7:55 pm 19:55 Clear 64 18 55 13 73 73 N 5 7 30.18 1022 10 16.09344 0 0
8:15 pm 20:15 Clear 63 17 55 13 77 77 N 3 6 30.18 1022 10 16.09344 0 0
8:35 pm 20:35 Clear 63 17 55 13 77 77 NNE 3 6 30.18 1022 10 16.09344 0 0
8:55 pm 20:55 Clear 61 16 55 13 83 83 N 3 6 30.18 1022 10 16.09344 0 0
9:15 pm 21:15 Clear 61 16 55 13 83 83 N 5 7 30.18 1022 10 16.09344 0 0
9:35 pm 21:35 Clear 61 16 55 13 83 83 N 5 7 30.18 1022 10 16.09344 0 0
9:55 pm 21:55 Clear 59 15 54 12 82 82 N 3 6 30.18 1022 10 16.09344 0 0
10:15 pm 22:15 Clear 59 15 54 12 82 82 NNW 3 6 30.18 1022 10 16.09344 0 0
10:35 pm 22:35 Clear 59 15 54 12 82 82 NNW 5 7 30.18 1022 10 16.09344 0 0
10:55 pm 22:55 Clear 59 15 54 12 82 82 NNW 5 7 30.18 1022 10 16.09344 0 0
11:15 pm 23:15 Clear 59 15 54 12 82 82 NNW 5 7 30.21 1023 10 16.09344 0 0
11:35 pm 23:35 Partly Cloudy 59 15 54 12 82 82 NNE 5 7 30.18 1022 10 16.09344 0 0
11:55 pm 23:55 Partly Cloudy 61 16 54 12 77 77 NNE 6 9 30.18 1022 10 16.09344 0 0

Powered by AerisWeather